******** Week 353 almanac for PRN-1 ******** ID: 1 Health: 0 Eccentricity: 0.001351356506 Time of Applicability(s): 61440 Orbital Inclination(rad): 0.9583688783 Rate of Right Ascen(r/s): -8.068907531e-09 SQRT(A) (m 1/2): 5153.583008 Right Ascen at Week(rad): -2.267731437 Argument of Perigee(rad): -0.02260449522 Mean Anom(rad): -0.9935368114 Af0(s): 0.0002728301025 Af1(s/s): -3.637979e-12 week: 353 ******** Week 353 almanac for PRN-2 ******** ID: 2 Health: 0 Eccentricity: 0.01696920395 Time of Applicability(s): 61440 Orbital Inclination(rad): 0.963893606 Rate of Right Ascen(r/s): -8.000333246e-09 SQRT(A) (m 1/2): 5153.563965 Right Ascen at Week(rad): -2.430518782 Argument of Perigee(rad): -0.8529026811 Mean Anom(rad): 0.3929552447 Af0(s): 1.130511475e-05 Af1(s/s): 7.275958e-12 week: 353 ******** Week 353 almanac for PRN-3 ******** ID: 3 Health: 0 Eccentricity: 0.006332874298 Time of Applicability(s): 61440 Orbital Inclination(rad): 0.9925418956 Rate of Right Ascen(r/s): -7.566029441e-09 SQRT(A) (m 1/2): 5153.612793 Right Ascen at Week(rad): -1.281871645 Argument of Perigee(rad): 1.211178949 Mean Anom(rad): 3.046549512 Af0(s): 0.0004748148193 Af1(s/s): -1.091394e-11 week: 353 ******** Week 353 almanac for PRN-4 ******** ID: 4 Health: 0 Eccentricity: 0.003722667694 Time of Applicability(s): 61440 Orbital Inclination(rad): 0.9704669533 Rate of Right Ascen(r/s): -7.748894201e-09 SQRT(A) (m 1/2): 5153.699707 Right Ascen at Week(rad): -0.2106530879 Argument of Perigee(rad): -2.916934128 Mean Anom(rad): -0.1708066636 Af0(s): 2.939329834e-05 Af1(s/s): 3.637979e-12 week: 353 ******** Week 353 almanac for PRN-5 ******** ID: 5 Health: 0 Eccentricity: 0.005369663238 Time of Applicability(s): 61440 Orbital Inclination(rad): 0.9791195637 Rate of Right Ascen(r/s): -7.703178011e-09 SQRT(A) (m 1/2): 5153.633301 Right Ascen at Week(rad): -1.340985333 Argument of Perigee(rad): 1.426358329 Mean Anom(rad): 0.4267983213 Af0(s): -0.0001793744873 Af1(s/s): 0 week: 353 ******** Week 353 almanac for PRN-6 ******** ID: 6 Health: 0 Eccentricity: 0.003849983215 Time of Applicability(s): 61440 Orbital Inclination(rad): 0.9873287578 Rate of Right Ascen(r/s): -7.794610391e-09 SQRT(A) (m 1/2): 5153.560059 Right Ascen at Week(rad): -2.31862507 Argument of Perigee(rad): -0.6296129771 Mean Anom(rad): -1.850990127 Af0(s): -0.0004755684936 Af1(s/s): -3.637979e-12 week: 353 ******** Week 353 almanac for PRN-7 ******** ID: 7 Health: 0 Eccentricity: 0.02015924454 Time of Applicability(s): 61440 Orbital Inclination(rad): 0.9507409191 Rate of Right Ascen(r/s): -7.897471818e-09 SQRT(A) (m 1/2): 5153.583496 Right Ascen at Week(rad): 0.7980463896 Argument of Perigee(rad): -2.005894099 Mean Anom(rad): -2.764863302 Af0(s): -0.0001055144043 Af1(s/s): -3.637979e-12 week: 353 ******** Week 353 almanac for PRN-8 ******** ID: 8 Health: 0 Eccentricity: 0.01139307022 Time of Applicability(s): 61440 Orbital Inclination(rad): 0.9445270985 Rate of Right Ascen(r/s): -8.126052768e-09 SQRT(A) (m 1/2): 5153.61377 Right Ascen at Week(rad): 2.846643278 Argument of Perigee(rad): 0.4986448732 Mean Anom(rad): 0.08956447937 Af0(s): 0.0003994473877 Af1(s/s): -3.637979e-12 week: 353 ******** Week 353 almanac for PRN-9 ******** ID: 9 Health: 0 Eccentricity: 0.003387928009 Time of Applicability(s): 61440 Orbital Inclination(rad): 0.9645767068 Rate of Right Ascen(r/s): -7.806039438e-09 SQRT(A) (m 1/2): 5153.527832 Right Ascen at Week(rad): -0.2745173969 Argument of Perigee(rad): 2.068433402 Mean Anom(rad): 0.6616003714 Af0(s): 0.0006089688477 Af1(s/s): 0 week: 353 ******** Week 353 almanac for PRN-10 ******** ID: 10 Health: 0 Eccentricity: 0.01097583771 Time of Applicability(s): 61440 Orbital Inclination(rad): 0.9920984793 Rate of Right Ascen(r/s): -7.543171346e-09 SQRT(A) (m 1/2): 5153.608887 Right Ascen at Week(rad): -1.284382715 Argument of Perigee(rad): -2.2684239 Mean Anom(rad): 2.081262889 Af0(s): -0.000459741333 Af1(s/s): -3.637979e-12 week: 353 ******** Week 353 almanac for PRN-11 ******** ID: 11 Health: 0 Eccentricity: 0.002241134644 Time of Applicability(s): 61440 Orbital Inclination(rad): 0.964163251 Rate of Right Ascen(r/s): -8.023191341e-09 SQRT(A) (m 1/2): 5153.725586 Right Ascen at Week(rad): -2.298724515 Argument of Perigee(rad): -2.250098148 Mean Anom(rad): -0.8864626304 Af0(s): -0.0003775908325 Af1(s/s): 1.455192e-11 week: 353 ******** Week 353 almanac for PRN-12 ******** ID: 12 Health: 0 Eccentricity: 0.009063720703 Time of Applicability(s): 61440 Orbital Inclination(rad): 0.9589561053 Rate of Right Ascen(r/s): -7.760323248e-09 SQRT(A) (m 1/2): 5153.519043 Right Ascen at Week(rad): 1.915956611 Argument of Perigee(rad): 1.533065868 Mean Anom(rad): 2.897896812 Af0(s): -0.0004793368652 Af1(s/s): 0 week: 353 ******** Week 353 almanac for PRN-13 ******** ID: 13 Health: 0 Eccentricity: 0.009899139404 Time of Applicability(s): 61440 Orbital Inclination(rad): 0.9761534681 Rate of Right Ascen(r/s): -7.714607058e-09 SQRT(A) (m 1/2): 5153.620605 Right Ascen at Week(rad): -0.1001701439 Argument of Perigee(rad): 1.003039553 Mean Anom(rad): -0.1877729555 Af0(s): 0.0005449065308 Af1(s/s): 0 week: 353 ******** Week 353 almanac for PRN-14 ******** ID: 14 Health: 0 Eccentricity: 0.006486415863 Time of Applicability(s): 61440 Orbital Inclination(rad): 0.9422680721 Rate of Right Ascen(r/s): -7.943188008e-09 SQRT(A) (m 1/2): 5153.593262 Right Ascen at Week(rad): 1.862111488 Argument of Perigee(rad): -2.763314715 Mean Anom(rad): 2.703582342 Af0(s): 0.0005750535034 Af1(s/s): 3.637979e-12 week: 353 ******** Week 353 almanac for PRN-15 ******** ID: 15 Health: 0 Eccentricity: 0.01659822464 Time of Applicability(s): 61440 Orbital Inclination(rad): 0.9423579538 Rate of Right Ascen(r/s): -8.046049436e-09 SQRT(A) (m 1/2): 5153.617188 Right Ascen at Week(rad): -0.4172824722 Argument of Perigee(rad): 1.493305206 Mean Anom(rad): -0.9212764293 Af0(s): 0.0002969476807 Af1(s/s): 3.637979e-12 week: 353 ******** Week 353 almanac for PRN-16 ******** ID: 16 Health: 0 Eccentricity: 0.01503515244 Time of Applicability(s): 61440 Orbital Inclination(rad): 0.9581172096 Rate of Right Ascen(r/s): -7.771752296e-09 SQRT(A) (m 1/2): 5153.574219 Right Ascen at Week(rad): 1.933020274 Argument of Perigee(rad): 0.9202720014 Mean Anom(rad): 1.084760357 Af0(s): 0.0001469664917 Af1(s/s): 7.275958e-12 week: 353 ******** Week 353 almanac for PRN-17 ******** ID: 17 Health: 0 Eccentricity: 0.01284360886 Time of Applicability(s): 61440 Orbital Inclination(rad): 0.9602863543 Rate of Right Ascen(r/s): -7.966046103e-09 SQRT(A) (m 1/2): 5153.51416 Right Ascen at Week(rad): 2.9505143 Argument of Perigee(rad): -1.136902596 Mean Anom(rad): -0.02629001889 Af0(s): -2.336390381e-05 Af1(s/s): -1.091394e-11 week: 353 ******** Week 353 almanac for PRN-18 ******** ID: 18 Health: 0 Eccentricity: 0.00568819046 Time of Applicability(s): 61440 Orbital Inclination(rad): 0.9722825634 Rate of Right Ascen(r/s): -7.931758961e-09 SQRT(A) (m 1/2): 5153.600098 Right Ascen at Week(rad): -2.322953996 Argument of Perigee(rad): -2.856556105 Mean Anom(rad): -2.007019118 Af0(s): -0.0003587489746 Af1(s/s): 1.091394e-11 week: 353 ******** Week 353 almanac for PRN-19 ******** ID: 19 Health: 0 Eccentricity: 0.01095533371 Time of Applicability(s): 61440 Orbital Inclination(rad): 0.9594834112 Rate of Right Ascen(r/s): -7.988904198e-09 SQRT(A) (m 1/2): 5153.656738 Right Ascen at Week(rad): 2.994419632 Argument of Perigee(rad): 2.913664307 Mean Anom(rad): 1.84247571 Af0(s): 0.0005411381592 Af1(s/s): 3.637979e-12 week: 353 ******** Week 353 almanac for PRN-21 ******** ID: 21 Health: 0 Eccentricity: 0.0005393028259 Time of Applicability(s): 61440 Orbital Inclination(rad): 0.96197613 Rate of Right Ascen(r/s): -7.851755628e-09 SQRT(A) (m 1/2): 5153.69043 Right Ascen at Week(rad): -1.274118601 Argument of Perigee(rad): -0.5009892872 Mean Anom(rad): 2.770867773 Af0(s): 0.0002992087036 Af1(s/s): 7.275958e-12 week: 353 ******** Week 353 almanac for PRN-22 ******** ID: 22 Health: 0 Eccentricity: 0.01224946976 Time of Applicability(s): 61440 Orbital Inclination(rad): 0.957553951 Rate of Right Ascen(r/s): -7.794610391e-09 SQRT(A) (m 1/2): 5153.581055 Right Ascen at Week(rad): 1.936357881 Argument of Perigee(rad): -0.9979252848 Mean Anom(rad): 0.6277393184 Af0(s): -4.748148193e-05 Af1(s/s): 3.637979e-12 week: 353 ******** Week 353 almanac for PRN-23 ******** ID: 23 Health: 0 Eccentricity: 0.005997180939 Time of Applicability(s): 61440 Orbital Inclination(rad): 0.9870890733 Rate of Right Ascen(r/s): -7.611745631e-09 SQRT(A) (m 1/2): 5153.655762 Right Ascen at Week(rad): -1.3162439 Argument of Perigee(rad): -2.749207035 Mean Anom(rad): -3.101565344 Af0(s): 0.0004725537964 Af1(s/s): 3.637979e-12 week: 353 ******** Week 353 almanac for PRN-24 ******** ID: 24 Health: 0 Eccentricity: 0.01782751083 Time of Applicability(s): 61440 Orbital Inclination(rad): 0.9348019 Rate of Right Ascen(r/s): -8.080336578e-09 SQRT(A) (m 1/2): 5153.592285 Right Ascen at Week(rad): 0.6904415322 Argument of Perigee(rad): 1.128730478 Mean Anom(rad): -1.784200918 Af0(s): -0.0001318930054 Af1(s/s): 1.455192e-11 week: 353 ******** Week 353 almanac for PRN-25 ******** ID: 25 Health: 0 Eccentricity: 0.01292467117 Time of Applicability(s): 61440 Orbital Inclination(rad): 0.9472355334 Rate of Right Ascen(r/s): -7.886042771e-09 SQRT(A) (m 1/2): 5153.693359 Right Ascen at Week(rad): 1.822672527 Argument of Perigee(rad): 1.148708556 Mean Anom(rad): 2.754616415 Af0(s): 0.0003564879517 Af1(s/s): -3.637979e-12 week: 353 ******** Week 353 almanac for PRN-26 ******** ID: 26 Health: 0 Eccentricity: 0.01095867157 Time of Applicability(s): 61440 Orbital Inclination(rad): 0.9279708918 Rate of Right Ascen(r/s): -8.080336578e-09 SQRT(A) (m 1/2): 5153.634277 Right Ascen at Week(rad): 1.749063546 Argument of Perigee(rad): 0.6992199769 Mean Anom(rad): 1.922520221 Af0(s): -0.0002449441528 Af1(s/s): -7.275958e-12 week: 353 ******** Week 353 almanac for PRN-27 ******** ID: 27 Health: 0 Eccentricity: 0.01414251328 Time of Applicability(s): 61440 Orbital Inclination(rad): 0.9536411016 Rate of Right Ascen(r/s): -8.046049436e-09 SQRT(A) (m 1/2): 5153.61377 Right Ascen at Week(rad): 2.878219089 Argument of Perigee(rad): 0.8648120046 Mean Anom(rad): 0.1783863113 Af0(s): -1.281246338e-05 Af1(s/s): -7.275958e-12 week: 353 ******** Week 353 almanac for PRN-28 ******** ID: 28 Health: 0 Eccentricity: 0.0004105567932 Time of Applicability(s): 61440 Orbital Inclination(rad): 0.9617244613 Rate of Right Ascen(r/s): -7.817468486e-09 SQRT(A) (m 1/2): 5153.705566 Right Ascen at Week(rad): 0.7717372708 Argument of Perigee(rad): 0.3969074173 Mean Anom(rad): -2.787955031 Af0(s): -0.0004838589111 Af1(s/s): 3.637979e-12 week: 353 ******** Week 353 almanac for PRN-29 ******** ID: 29 Health: 0 Eccentricity: 0.003239631653 Time of Applicability(s): 61440 Orbital Inclination(rad): 0.9629228838 Rate of Right Ascen(r/s): -7.966046103e-09 SQRT(A) (m 1/2): 5153.737793 Right Ascen at Week(rad): 2.967084364 Argument of Perigee(rad): 2.753339346 Mean Anom(rad): 0.05567309133 Af0(s): -0.000312021167 Af1(s/s): 7.275958e-12 week: 353 ******** Week 353 almanac for PRN-30 ******** ID: 30 Health: 0 Eccentricity: 0.007856845856 Time of Applicability(s): 61440 Orbital Inclination(rad): 0.9359943304 Rate of Right Ascen(r/s): -8.080336578e-09 SQRT(A) (m 1/2): 5153.723633 Right Ascen at Week(rad): 0.7897746529 Argument of Perigee(rad): -2.349731249 Mean Anom(rad): -2.865522177 Af0(s): 6.707701416e-05 Af1(s/s): 1.091394e-11 week: 353 ******** Week 353 almanac for PRN-31 ******** ID: 31 Health: 0 Eccentricity: 0.01088285446 Time of Applicability(s): 61440 Orbital Inclination(rad): 0.9545039658 Rate of Right Ascen(r/s): -7.874613723e-09 SQRT(A) (m 1/2): 5153.703613 Right Ascen at Week(rad): 0.8220549117 Argument of Perigee(rad): 0.9296526535 Mean Anom(rad): 2.457400896 Af0(s): -0.0001371687256 Af1(s/s): 3.637979e-12 week: 353 ******** Week 353 almanac for PRN-32 ******** ID: 32 Health: 0 Eccentricity: 0.009156703949 Time of Applicability(s): 61440 Orbital Inclination(rad): 0.9676566526 Rate of Right Ascen(r/s): -7.783181343e-09 SQRT(A) (m 1/2): 5153.65918 Right Ascen at Week(rad): -0.2576960392 Argument of Perigee(rad): -2.029605637 Mean Anom(rad): 0.7923010773 Af0(s): -0.0001326466797 Af1(s/s): 1.818989e-11 week: 353